Regional Weather Roundup
Issued by NWS

Home | Current Version | Previous Version | Graphics & Text | Print | Product List | Glossary On
Versions: 1 2 3 4 5 6 7 8 9 10 11 12 13 14 15 16 17 18 19 20 21 22 23 24 25 26 27 28 29 30 31 32 33 34 35 36 37 38 39 40 41 42 43 44 45 46 47 48 49 50
432
ASUS44 KMEG 290410
RWRTN
TENNESSEE HOURLY STATE WEATHER ROUNDUP
NATIONAL WEATHER SERVICE MEMPHIS TN
1100 PM CDT THU APR 28 2016

TNZ002-004-019-021-049-052-054-088>092-290500-
WEST TENNESSEE

CITY           SKY/WX    TMP DP  RH WIND       PRES   REMARKS
MEMPHIS INTL   CLEAR     68  54  60 CALM      29.97S
NWS MEMPHIS      N/A     62 N/A N/A MISG        N/A
JACKSON        CLEAR     60  57  89 CALM      29.98S
DYERSBURG      CLEAR     63  52  67 CALM      30.00S
UNION CITY     CLEAR     61  54  77 CALM      29.98S
LEXINGTON      CLEAR     59  57  94 CALM      29.98S
$$

TNZ008-025-027-028-033-062-065-066-290500-
NORTH MIDDLE TENNESSEE

CITY           SKY/WX    TMP DP  RH WIND       PRES   REMARKS
NASHVILLE      CLEAR     64  53  67 CALM      29.99R
CLARKSVILLE    CLEAR     63  52  67 W5        29.99R
SMYRNA         CLEAR     62  55  77 N3        30.00R
COOKEVILLE     CLEAR     55  54  94 CALM      29.99S
CROSSVILLE     CLEAR     65  52  62 W6        30.03R
$$

TNZ061-075-076-078-094-096-097-290500-
SOUTH MIDDLE TENNESSEE

CITY           SKY/WX    TMP DP  RH WIND       PRES   REMARKS
FAYETTEVILLE   CLEAR     68  55  64 N5        30.00S
TULLAHOMA      CLEAR     57  57 100 CALM      30.01F
WINCHESTER     CLEAR     59  57  94 CALM      30.00F
MCMINNVILLE    CLEAR     61  54  77 SW7G133   30.01R
COLUMBIA       CLEAR    N/A N/A N/A CALM      29.98F
SHELBYVILLE    CLEAR     61  57  88 E3        30.01S
$$

TNZ017-018-042-046-047-290500-
NORTHEAST TENNESSEE

CITY           SKY/WX    TMP DP  RH WIND       PRES   REMARKS
TRI CITIES     PTCLDY    61  55  81 CALM      29.96R
$$

TNZ012-013-036-069-073-074-290500-
CENTRAL EAST TENNESSEE

CITY           SKY/WX    TMP DP  RH WIND       PRES   REMARKS
KNOXVILLE      CLEAR     68  57  68 SW7       29.96R
OAK RIDGE      CLEAR     67  57  70 CALM      29.97S
GATLINBURG     CLEAR     63  55  77 CALM      29.96R
MORRISTOWN     PTCLDY    66  57  72 CALM      29.96R
$$

TNZ083-085-099-290500-
SOUTHEAST TENNESSEE

CITY           SKY/WX    TMP DP  RH WIND       PRES   REMARKS
CHATTANOOGA    CLEAR     65  59  81 CALM      29.97R
$$

SKY/WX REPORTED AS FAIR MEANS FEW OR NO CLOUDS BELOW
12 THOUSAND FEET.





USA.gov is the U.S. government's official web portal to all federal, state and local government web resources and services.